Tracking 31027 objects as of 19-Jul-2025
HD Live streaming from Space Station
objects crossing your sky now

STARLINK-5706

Track STARLINK-5706 now!
10-day predictions
STARLINK-5706 is classified as:


NORAD ID: 55488
Int'l Code: 2023-015AR
Perigee: 565.5 km
Apogee: 567.0 km
Inclination: 43.0 °
Period: 95.8 minutes
Semi major axis: 6937 km
RCS: Unknown
Launch date: February 2, 2023
Source: United States (US)
Launch site: AIR FORCE EASTERN TEST RANGE (AFETR)
Your satellite tracking list
SL-8 R/B
Track 1 satellite(s)




NASA's NSSDC Master Catalog

Two Line Element Set (TLE):
1 55488U 23015AR  25199.60443759 -.00000050  00000-0  11372-4 0  9999
2 55488  43.0026 170.7446 0001091 297.8430  62.2301 15.02533208135394
Source of the keplerian elements: AFSPC